Emporia, KS

10:34 PM CST on February 07, 2016 (GMT -0600)
Emporia Municipal

Weather History for KEMP - March, 2013

Change the Weather History Date:

Wednesday, March 27, 2013

  Actual Average Record
Temperature  
Mean Temperature 42 °F 49 °F  
Max Temperature 58 °F 62 °F 76 °F (2012)
Min Temperature 26 °F 37 °F 23 °F (2001)
Degree Days  
Heating Degree Days 23 16  
Month to date heating degree days 741 549  
Since 1 July heating degree days 4337 4371  
Cooling Degree Days 0 0  
Month to date cooling degree days 0 0  
Year to date cooling degree days 0 0  
Moisture  
Dew Point 28 °F    
Average Humidity 62    
Maximum Humidity 85    
Minimum Humidity 39    
Precipitation  
Precipitation 0.00 in 0.07 in 1.26 in (2004)
Month to date precipitation 1.19 2.21  
Year to date precipitation 3.97 4.07  
Sea Level Pressure  
Sea Level Pressure 30.22 in    
Wind  
Wind Speed 11 mph (ESE)    
Max Wind Speed 22 mph    
Max Gust Speed 28 mph    
Visibility 10 miles    
Events      
T = Trace of Precipitation, MM = Missing Value Source: NWS Daily Summary

Daily Weather History Graph

Daily Weather History Graph

Search for Another Location

Airport or City:

Trip Planner

Search our weather history database for the weather conditions in past years. The results will help you decide how hot, cold, wet, or windy it might be!

Date:

Astronomy

Mar. 27, 2013 Rise Set
Actual Time 7:17 AM CDT 7:43 PM CDT
Civil Twilight 6:50 AM CDT 8:10 PM CDT
Nautical Twilight 6:19 AM CDT 8:41 PM CDT
Astronomical Twilight 5:47 AM CDT 9:13 PM CDT
Moon 8:27 PM CDT (3/27) 7:09 AM CDT (3/27)
Length of Visible Light 13h 19m
Length of Day
12h 26m
Full, 100% of the Moon is Illuminated
Mar 27
Full
Apr 2
Last Quarter
Apr 10
New
Apr 18
First Quarter
Apr 25
Full

Hourly Weather History & Observations

Time (CDT) Temp. Windchill Dew Point Humidity Pressure Visibility Wind Dir Wind Speed Gust Speed Precip Events Conditions
12:20 AM 26.6 °F 19.1 °F 21.2 °F 80% 30.26 in 10.0 mi SE 6.9 mph 32.2 mph N/A   Squalls
12:53 AM 27.0 °F 19.5 °F 21.0 °F 78% 30.31 in 10.0 mi ESE 6.9 mph - N/A   Clear
1:53 AM 27.0 °F 18.0 °F 21.0 °F 78% 30.29 in 10.0 mi SE 9.2 mph - N/A   Clear
2:53 AM 27.0 °F 18.7 °F 21.9 °F 81% 30.29 in 10.0 mi ESE 8.1 mph - N/A   Overcast
3:53 AM 28.0 °F 20.8 °F 23.0 °F 81% 30.27 in 10.0 mi ESE 6.9 mph - N/A   Mostly Cloudy
4:53 AM 28.9 °F 21.9 °F 24.1 °F 82% 30.28 in 10.0 mi East 6.9 mph - N/A   Overcast
5:53 AM 30.0 °F 22.4 °F 24.1 °F 79% 30.27 in 10.0 mi East 8.1 mph - N/A   Overcast
6:53 AM 30.0 °F 21.7 °F 24.1 °F 79% 30.27 in 10.0 mi ESE 9.2 mph - N/A   Overcast
7:53 AM 30.9 °F 21.7 °F 24.1 °F 76% 30.26 in 10.0 mi ESE 11.5 mph - N/A   Overcast
8:53 AM 32.0 °F 23.6 °F 25.0 °F 75% 30.27 in 10.0 mi SE 10.4 mph - N/A   Overcast
9:53 AM 36.0 °F 27.5 °F 27.0 °F 70% 30.24 in 10.0 mi SE 12.7 mph - N/A   Overcast
10:53 AM 41.0 °F 32.5 °F 27.0 °F 57% 30.22 in 10.0 mi SSE 17.3 mph 20.7 mph N/A   Overcast
11:53 AM 45.0 °F 38.5 °F 28.0 °F 52% 30.23 in 10.0 mi South 13.8 mph 23.0 mph N/A   Clear
12:53 PM 48.9 °F - 30.0 °F 48% 30.20 in 10.0 mi SSE 18.4 mph - N/A   Clear
1:53 PM 51.1 °F - 30.9 °F 46% 30.18 in 10.0 mi SSE 13.8 mph 21.9 mph N/A   Clear
2:53 PM 53.1 °F - 30.9 °F 43% 30.17 in 10.0 mi SSE 16.1 mph - N/A   Clear
3:53 PM 57.0 °F - 32.0 °F 39% 30.14 in 10.0 mi SE 13.8 mph - N/A   Clear
4:53 PM 55.0 °F - 32.0 °F 42% 30.14 in 10.0 mi SE 10.4 mph - N/A   Mostly Cloudy
5:53 PM 54.0 °F - 35.1 °F 49% 30.14 in 10.0 mi East 10.4 mph - N/A   Scattered Clouds
6:53 PM 55.0 °F - 34.0 °F 45% 30.14 in 10.0 mi ESE 8.1 mph - N/A   Mostly Cloudy
7:53 PM 46.0 °F 41.9 °F 36.0 °F 68% 30.17 in 10.0 mi ENE 8.1 mph - N/A   Partly Cloudy
8:53 PM 43.0 °F 37.2 °F 34.0 °F 71% 30.18 in 10.0 mi ENE 10.4 mph - N/A   Clear
9:53 PM 41.0 °F 34.7 °F 33.1 °F 73% 30.20 in 10.0 mi ENE 10.4 mph - N/A   Clear
10:53 PM 37.0 °F 30.4 °F 30.9 °F 79% 30.21 in 10.0 mi East 9.2 mph - N/A   Clear
11:53 PM 37.0 °F 31.6 °F 30.0 °F 76% 30.22 in 10.0 mi NE 6.9 mph - N/A   Clear